星链-4585 (STARLINK-4585 )

导读

STARLINK-4585是美国SpaceX公司星链(Starlink)项目的一颗低轨互联网通信卫星,于2022年8月19日成功发射入轨。它属于星链第一代卫星星座,运行在近地轨道,配备氪离子推进系统与相控阵通信天线,可提供低延迟宽带互联网接入服务,助力星链实现全球覆盖,服务偏远地区网络接入、应急通信等场景,是SpaceX构建巨型卫星星座的重要组成部分。

Basic Information
目录编号:
53567
目录名称:
STARLINK-4585
国际标识:
2022-101AS
轨道中心:
EARTH
卫星名称:
星链-4585
卫星全名:
星链-4585 (STARLINK-4585 )
卫星状态:
在轨 (已飞行1398 天)
发射日期:
2022-08-19 UTC
国别 :
美国 (US)
星等 :
--
Orbit Information
数据来源 国际轨道数据 AOE轨道数据
星历时间 2026-06-17T12:22:04+0800
5小时前
查看轨道信息
2026-06-14T23:00:00+0800
2天前
查看轨道信息
半长轴 6917.899km 6917.911km
偏心率 0.000116 0.000288
轨道倾角 53.160° 53.166°
近地点辐角 86.213° 81.252°
升交点赤经 327.489° 338.972°
平近点角 273.900° 62.204°
近地点 538.959km 537.781km
远地点 540.565km 541.767km
周期 95.438分钟 95.438分钟
每日圈数 15.088341 15.088302
Detailed Information
固有亮度:
5
最大亮度:
2.5
卫星平台:
Starlink v1.5
覆盖范围:
全球
运营商:
太空探索技术公司
运营商所在国:
美国
制造商(研发单位):
太空探索技术公司
制造商所在国:
美国
使用方式:
暂无
Satellite Introduction
星链(Starlink)计划是由太空探索技术公司(SpaceX)提出的一个巨型低轨卫星互联网星座项目,计划在2019年至2024年间在太空搭建由约1.2万颗卫星组成的“星链”网络,其中1584颗将部署在地球上空550千米处的近地轨道,并从2020年开始工作。该卫星仍在工作。
2D Orbit Map
3D Orbit Map
Orbit Altitude Analysis Chart
Orbit Inclination Analysis Chart
Orbit Comprehensive Analysis Chart
View Comprehensive Chart